�搅�E���B���j�^�v������
Date,Time,�搅(cps),���B(cps),���J
2023/09/09,00:00,8.4,5.3,�L
2023/09/09,00:10,8.6,5.3,�L
2023/09/09,00:20,8.6,5.4,�L
2023/09/09,00:30,8.5,5.5,�L
2023/09/09,00:40,8.7,5.5,�L
2023/09/09,00:50,8.7,5.4,��
2023/09/09,01:00,8.7,5.4,��
2023/09/09,01:10,8.6,5.3,�L
2023/09/09,01:20,8.7,5.3,�L
2023/09/09,01:30,8.8,5.4,��
2023/09/09,01:40,8.6,5.3,��
2023/09/09,01:50,8.5,5.4,��
2023/09/09,02:00,8.3,5.2,��
2023/09/09,02:10,8.3,5.3,��
2023/09/09,02:20,8.0,5.3,��
2023/09/09,02:30,7.9,5.2,��
2023/09/09,02:40,7.9,5.2,��
2023/09/09,02:50,8.1,5.2,��
2023/09/09,03:00,7.8,5.1,��
2023/09/09,03:10,7.9,5.1,��
2023/09/09,03:20,7.7,5.0,��
2023/09/09,03:30,7.7,5.1,��
2023/09/09,03:40,7.8,5.1,�L
2023/09/09,03:50,7.7,4.9,�L
2023/09/09,04:00,7.7,5.1,�L
2023/09/09,04:10,7.7,5.2,�L
2023/09/09,04:20,7.7,5.1,��
2023/09/09,04:30,7.7,5.2,��
2023/09/09,04:40,7.7,5.1,��
2023/09/09,04:50,7.7,5.1,��
2023/09/09,05:00,7.6,5.1,��
2023/09/09,05:10,7.6,5.1,��
2023/09/09,05:20,7.5,5.0,��
2023/09/09,05:30,7.4,5.1,��
2023/09/09,05:40,7.5,5.1,��
2023/09/09,05:50,7.6,5.0,��
2023/09/09,06:00,7.2,5.0,��
2023/09/09,06:10,7.5,5.1,��
2023/09/09,06:20,7.4,5.2,��
2023/09/09,06:30,7.4,5.1,��
2023/09/09,06:40,7.4,4.9,��
2023/09/09,06:50,7.3,5.1,��
2023/09/09,07:00,7.4,5.2,��
2023/09/09,07:10,7.3,4.9,�L
2023/09/09,07:20,7.2,5.1,�L
2023/09/09,07:30,7.3,5.0,�L
2023/09/09,07:40,7.2,5.1,�L
2023/09/09,07:50,7.5,5.0,�L
2023/09/09,08:00,7.4,5.2,�L
2023/09/09,08:10,7.5,5.3,�L
2023/09/09,08:20,7.7,5.1,�L
2023/09/09,08:30,7.7,5.1,�L
2023/09/09,08:40,7.7,5.4,�L
2023/09/09,08:50,8.1,5.4,�L
2023/09/09,09:00,8.2,5.3,�L
2023/09/09,09:10,8.2,5.5,�L
2023/09/09,09:20,8.5,5.4,�L
2023/09/09,09:30,8.4,5.4,�L
2023/09/09,09:40,8.2,5.3,�L
2023/09/09,09:50,8.1,5.5,�L
2023/09/09,10:00,8.0,5.3,�L
2023/09/09,10:10,8.0,5.5,��
2023/09/09,10:20,7.9,5.2,��
2023/09/09,10:30,7.6,5.5,��
2023/09/09,10:40,7.8,5.3,��
2023/09/09,10:50,7.5,5.3,��
2023/09/09,11:00,7.3,5.2,��
2023/09/09,11:10,7.2,5.1,��
2023/09/09,11:20,7.3,5.2,��
2023/09/09,11:30,7.3,5.3,��
2023/09/09,11:40,7.2,5.1,��
2023/09/09,11:50,7.3,5.1,��
2023/09/09,12:00,7.2,5.0,��
2023/09/09,12:10,7.1,5.2,��
2023/09/09,12:20,7.1,5.2,��
2023/09/09,12:30,7.0,5.2,��
2023/09/09,12:40,7.1,5.1,��
2023/09/09,12:50,6.8,5.2,��
2023/09/09,13:00,6.9,5.2,��
2023/09/09,13:10,7.0,5.1,��
2023/09/09,13:20,7.1,5.1,��
2023/09/09,13:30,7.2,5.2,��
2023/09/09,13:40,6.9,5.2,��
2023/09/09,13:50,6.9,5.2,��
2023/09/09,14:00,7.2,5.2,��
2023/09/09,14:10,7.1,5.2,��
2023/09/09,14:20,7.1,5.1,��
2023/09/09,14:30,7.2,5.2,��
2023/09/09,14:40,6.8,5.2,��
2023/09/09,14:50,6.9,5.1,��
2023/09/09,15:00,6.9,5.0,��
2023/09/09,15:10,6.9,5.1,��
2023/09/09,15:20,6.9,5.2,��
2023/09/09,15:30,7.0,5.1,��
2023/09/09,15:40,7.0,5.2,��
2023/09/09,15:50,7.1,5.2,��
2023/09/09,16:00,6.9,5.3,��
2023/09/09,16:10,6.8,5.1,��
2023/09/09,16:20,6.9,5.2,��
2023/09/09,16:30,6.9,5.1,��
2023/09/09,16:40,7.0,5.2,��
2023/09/09,16:50,6.9,5.0,��
2023/09/09,17:00,6.9,5.1,��
2023/09/09,17:10,7.1,5.2,��
2023/09/09,17:20,6.9,5.2,��
2023/09/09,17:30,6.9,5.2,��
2023/09/09,17:40,7.0,5.2,��
2023/09/09,17:50,6.9,5.2,��
2023/09/09,18:00,6.9,5.2,��
2023/09/09,18:10,6.9,5.2,��
2023/09/09,18:20,6.8,5.2,��
2023/09/09,18:30,6.7,5.2,��
2023/09/09,18:40,6.8,5.2,��
2023/09/09,18:50,6.8,5.1,��
2023/09/09,19:00,6.8,5.1,��
2023/09/09,19:10,6.7,5.1,��
2023/09/09,19:20,6.9,5.2,��
2023/09/09,19:30,6.8,5.2,��
2023/09/09,19:40,6.9,5.2,��
2023/09/09,19:50,6.9,5.1,��
2023/09/09,20:00,7.0,5.2,��
2023/09/09,20:10,6.9,5.1,��
2023/09/09,20:20,6.8,5.1,��
2023/09/09,20:30,7.0,5.1,��
2023/09/09,20:40,6.9,5.2,��
2023/09/09,20:50,6.9,5.1,��
2023/09/09,21:00,7.0,5.1,��
2023/09/09,21:10,6.8,5.2,��
2023/09/09,21:20,6.9,5.3,��
2023/09/09,21:30,7.0,5.1,��
2023/09/09,21:40,6.9,5.3,��
2023/09/09,21:50,6.9,5.2,��
2023/09/09,22:00,6.9,5.1,��
2023/09/09,22:10,6.9,5.2,��
2023/09/09,22:20,6.8,5.1,��
2023/09/09,22:30,6.8,5.3,��
2023/09/09,22:40,6.9,5.2,��
2023/09/09,22:50,6.9,5.2,��
2023/09/09,23:00,7.0,5.2,��
2023/09/09,23:10,6.8,5.3,��
2023/09/09,23:20,7.0,5.3,��
2023/09/09,23:30,7.0,5.3,��
2023/09/09,23:40,6.9,5.2,��
2023/09/09,23:50,6.9,5.1,��
